This is the latest recevied weather packets stored in our database for station/object HP1CDW-11. If no packets are shown the sender has not sent any weather packets the latest 10 day(s).
| Time | Temp. | Humidity | Pressure | Rain* | Wind** | Luminosity | Snow |
|---|---|---|---|---|---|---|---|
| 1777474662 | 32.22° C | 44% | 1009.2 hPa | - | - | - | - |
| 1777474062 | 32.22° C | 46% | 1009.3 hPa | - | - | - | - |
| 1777473461 | 32.22° C | 45% | 1009.4 hPa | - | - | - | - |
| 1777472861 | 32.22° C | 48% | 1009.5 hPa | - | - | - | - |
| 1777472261 | 32.22° C | 48% | 1009.4 hPa | - | - | - | - |
| 1777471660 | 32.22° C | 55% | 1009.4 hPa | - | - | - | - |
| 1777471060 | 32.22° C | 55% | 1009.4 hPa | - | - | - | - |
| 1777470460 | 31.67° C | 55% | 1009.4 hPa | - | - | - | - |
| 1777469859 | 31.67° C | 56% | 1009.5 hPa | - | - | - | - |
| 1777469259 | 31.67° C | 56% | 1009.4 hPa | - | - | - | - |
| 1777468659 | 31.67° C | 56% | 1009.5 hPa | - | - | - | - |
| 1777468058 | 31.67° C | 56% | 1009.3 hPa | - | - | - | - |
| 1777467458 | 31.67° C | 56% | 1009.3 hPa | - | - | - | - |
| 1777466858 | 31.67° C | 56% | 1009.1 hPa | - | - | - | - |
| 1777466257 | 31.67° C | 56% | 1009.1 hPa | - | - | - | - |
| 1777465657 | 31.67° C | 57% | 1008.9 hPa | - | - | - | - |
| 1777465057 | 31.67° C | 57% | 1008.8 hPa | - | - | - | - |
| 1777464457 | 31.67° C | 57% | 1008.6 hPa | - | - | - | - |
| 1777463856 | 31.67° C | 57% | 1008.7 hPa | - | - | - | - |
| 1777463256 | 31.67° C | 57% | 1008.5 hPa | - | - | - | - |
| 1777462655 | 31.67° C | 56% | 1008.4 hPa | - | - | - | - |
| 1777462055 | 31.67° C | 56% | 1008.4 hPa | - | - | - | - |
| 1777461455 | 31.67° C | 56% | 1008.2 hPa | - | - | - | - |
| 1777460855 | 31.67° C | 56% | 1008.1 hPa | - | - | - | - |
| 1777460254 | 31.67° C | 56% | 1008.1 hPa | - | - | - | - |
* Rain since midnight (hover to see other rain measurements)
** Current wind speed in m/s (hover to see current wind gust speed)